Regional Weather Roundup
Issued by NWS Charleston, SC

Current Version | Previous Version | Graphics & Text | Print | Product List | Glossary On
Versions: 1 2 3 4 5 6 7 8 9 10 11 12 13 14 15 16 17 18 19 20 21 22 23 24 25 26 27 28 29 30 31 32 33 34 35 36 37 38 39 40 41 42 43 44 45 46 47 48 49 50
000
ASUS42 KCHS 181411
RWRCHS

REGIONAL WEATHER ROUNDUP
NATIONAL WEATHER SERVICE CHARLESTON SC
1000 AM EDT SAT APR 18 2015

NOTE: "FAIR" INDICATES FEW OR NO CLOUDS BELOW 12,000 FEET WITH NO
SIGNIFICANT WEATHER AND/OR OBSTRUCTIONS TO VISIBILITY.

NOT ALL STATIONS ARE QUALITY CONTROLLED BY THE NATIONAL
WEATHER SERVICE. USE DATA WITH CAUTION...ESPECIALLY
DEWPOINT OBSERVATIONS.

SCZ027-030-031-034>040-042>050-181500-
...SOUTHEAST SOUTH CAROLINA...

CITY           SKY/WX    TMP DP  RH WIND       PRES   REMARKS
N CHARLESTON   CLOUDY    71  68  90 NW3       29.99S
WATERFRONT PRK   N/A     70 N/A N/A N3          N/A
MOUNT PLEASANT CLOUDY    70  70 100 CALM      29.99S
PINOPOLIS      NOT AVBL
MONCKS CORNER  CLOUDY    70  66  88 NE3       30.00R
SUMMERVILLE    CLOUDY    68  68 100 CALM      30.00S
BEAUFORT MCAS    N/A    N/A N/A N/A MISG      29.99S
BEAUFORT ARPT  CLOUDY    70  70 100 CALM      29.99R FOG
HILTON HEAD IS CLOUDY    70  68  94 E3        30.01R FOG
WALTERBORO     CLOUDY    68  66  94 SE3       30.00S
ALLENDALE      CLOUDY    68  68 100 CALM      29.98S

...SOUTHERN MIDLANDS AND PEE DEE...

CITY           SKY/WX    TMP DP  RH WIND       PRES   REMARKS
GEORGETOWN     NOT AVBL
KINGSTREE      NOT AVBL
ORANGEBURG     CLOUDY    69  64  84 NE5       30.00S
BARNWELL       CLOUDY    70  68  94 E6        30.00S
AIKEN          LGT RAIN  52  52 100 NE7       30.03S
MANNING        RAIN      66  63  88 N3        30.01R
COLUMBIA       CLOUDY    69  64  84 E3        30.00S
SUMTER         CLOUDY    67  64  90 NE5       29.99S
FLORENCE       CLOUDY    68  64  87 NE6       30.01S
MYRTLE BEACH   CLOUDY    70  64  83 N8        30.01S
N MYRTLE BEACH LGT RAIN  67  66  97 NE6       30.00R FOG

$$

GAZ063-065-086>088-099>101-113>116-118-119-134>141-150-181500-
...SOUTHEAST GEORGIA...

CITY           SKY/WX    TMP DP  RH WIND       PRES   REMARKS
SAVANNAH ARPT  CLOUDY    72  66  83 E7        29.99R
HUNTER AAF     CLOUDY    72  72 100 SE5       29.97R
FORT STEWART   CLOUDY    70  68  95 VRB2      29.97R
STATESBORO       N/A     68  68 100 S6        29.99R
SYLVANIA       RAIN      68  68 100 SE3       29.99S
CLAXTON        CLOUDY    68  68 100 CALM      29.98S FOG

...CSRA...CENTRAL AND FAR SOUTHEAST GEORGIA...

CITY           SKY/WX    TMP DP  RH WIND       PRES   REMARKS
THOMSON        CLOUDY    67  67 100 CALM      30.04R
AUGUSTA-BUSH   RAIN      66  65  96 CALM      29.98R FOG
AUGUSTA-DANIEL LGT RAIN  67  65  93 E6        29.99S FOG
SWAINSBORO     CLOUDY    70  70 100 SE5       29.98S
VIDALIA        HVY RAIN  70  68  94 S3        29.98S
EASTMAN        CLOUDY    71  71 100 CALM      29.99F
HAZLEHURST     CLOUDY    70  70 100 CALM      29.97S FOG
ALMA           CLOUDY    69  68  96 S3        29.97S FOG
WAYCROSS       CLOUDY    73  72  96 S3        29.97F FOG
JESUP          CLOUDY    72  70  94 CALM      29.99R
BAXLEY         CLOUDY    70  68  94 S3        29.97S FOG
BRUNSWICK      CLOUDY    72  66  83 CALM      29.99R
SAINT SIMONS   CLOUDY    71  67  87 SE6       29.98S

$$

SCZ027-028-034-036>038-045-046-048>050-GAZ119-141-181500-
...LAKE AND SUPPLEMENTAL COASTAL OBSERVATIONS...

STATION/POSITION TIME  TEMP    WIND        PRES    WAVE   SWELL
                       AIR SEA DIR/SP/G            HT/PER HT/PER/DIR
                 (UTC) (F)     (DEG/KT/KT) (MB)    (FT/S) (FT/S/D)
UPR LAKE MARION  NOT AVBL
WINYAH BAY       NOT AVBL
LAKE MURRAY      1300   64     310/  2/  3 1015.9R
ACE BASIN NERRS  NOT AVBL
FORT PULASKI     1300   68 70  140/  3/  4 1015.8S
SAPELO ISLAND    1300   72     140/  5     1015.0S

$$

ANZ835-935-AMZ111-154-330-350-352-354-370-450-454-472-181500-
...C-MAN AND BUOY OBSERVATIONS...

STATION/POSITION TIME  TEMP    WIND        PRES    WAVE   SWELL
                       AIR SEA DIR/SP/G            HT/PER HT/PER/DIR
                 (UTC) (F)     (DEG/KT/KT) (MB)    (FT/S) (FT/S/D)
BUOY 41004       1350   71 75  340/  4/  6 1014.4F   3/ 9   3/ 9
BUOY 41008       1350   66 67  140/  4/  6 1015.5R   2/10   2/ 80/10
FOLLY BEACH CMAN 1400   69     350/  2/  3 1015.4R
CAPERS NEARSHORE NOT AVBL
FRIPP NEARSHORE  1300   67      CALM  /  2 1015.1S


STATION/POSITION TIME  TEMP    WIND        PRES    WAVE   SWELL
                       AIR SEA DIR/SP/G            HT/PER HT/PER/DIR
                 (UTC) (F)     (DEG/KT/KT) (MB)    (FT/S) (FT/S/D)
5E ST. MARYS GA  1321      70                N/A     3/ 9   2/ 90/11
FRYING PAN BUOY  1350   71 73   20/ 10/ 12 1015.3R   4/ 8   3/110/ 8
BUOY 41025       1350   70 75   30/ 10/ 12 1015.7R   5/ 9   5/ 90/ 9
CAPE LOOKOUT NC  1400   67      40/  5/  5 1015.6R
BUOY 41002       1350   73 74  240/  8/ 10 1014.7R   6/10   5/ 60/10
BUOY 41010       1320   79 78  210/  8/  8 1015.4R
ST AUGUSTINE FL  1400   71 69   90/  4/  4 1015.9R


$$


USA.gov is the U.S. government's official web portal to all federal, state and local government web resources and services.